Year,Month,Day,Hour,Minute,Value (Times are PST for temperature in C)
2014,09,16,00,00,15.00
2014,09,16,00,01,15.00
2014,09,16,00,02,15.00
2014,09,16,00,03,15.00
2014,09,16,00,04,15.00
2014,09,16,00,05,15.00
2014,09,16,00,06,15.00
2014,09,16,00,07,15.00
2014,09,16,00,08,15.00
2014,09,16,00,09,15.00
2014,09,16,00,10,14.90
2014,09,16,00,11,14.90
2014,09,16,00,12,14.80
2014,09,16,00,13,14.80
2014,09,16,00,14,14.90
2014,09,16,00,15,15.00
2014,09,16,00,16,15.00
2014,09,16,00,17,15.10
2014,09,16,00,18,15.40
2014,09,16,00,19,15.60
2014,09,16,00,20,15.90
2014,09,16,00,21,16.10
2014,09,16,00,22,16.40
2014,09,16,00,23,16.60
2014,09,16,00,24,16.80
2014,09,16,00,25,17.00
2014,09,16,00,26,17.20
2014,09,16,00,27,17.30
2014,09,16,00,28,17.40
2014,09,16,00,29,17.40
2014,09,16,00,30,17.50
2014,09,16,00,31,17.50
2014,09,16,00,32,17.60
2014,09,16,00,33,17.60
2014,09,16,00,34,17.70
2014,09,16,00,35,17.80
2014,09,16,00,36,17.80
2014,09,16,00,37,17.90
2014,09,16,00,38,17.90
2014,09,16,00,39,18.00
2014,09,16,00,40,18.00
2014,09,16,00,41,18.00
2014,09,16,00,42,18.10
2014,09,16,00,43,18.10
2014,09,16,00,44,18.00
2014,09,16,00,45,18.00
2014,09,16,00,46,18.00
2014,09,16,00,47,18.00
2014,09,16,00,48,17.90
2014,09,16,00,49,17.80
2014,09,16,00,50,17.80
2014,09,16,00,51,17.70
2014,09,16,00,52,17.60
2014,09,16,00,53,17.50
2014,09,16,00,54,17.40
2014,09,16,00,55,17.30
2014,09,16,00,56,17.20
2014,09,16,00,57,17.10
2014,09,16,00,58,17.10
2014,09,16,00,59,17.10
2014,09,16,01,00,17.00
2014,09,16,01,01,17.00
2014,09,16,01,02,16.90
2014,09,16,01,03,16.90
2014,09,16,01,04,16.80
2014,09,16,01,05,16.70
2014,09,16,01,06,16.60
2014,09,16,01,07,16.50
2014,09,16,01,08,16.30
2014,09,16,01,09,16.10
2014,09,16,01,10,16.00
2014,09,16,01,11,15.80
2014,09,16,01,12,15.80
2014,09,16,01,13,15.70
2014,09,16,01,14,15.70
2014,09,16,01,15,15.60
2014,09,16,01,16,15.60
2014,09,16,01,17,15.50
2014,09,16,01,18,15.30
2014,09,16,01,19,15.10
2014,09,16,01,20,15.00
2014,09,16,01,21,14.80
2014,09,16,01,22,14.70
2014,09,16,01,23,14.60
2014,09,16,01,24,14.60
2014,09,16,01,25,14.70
2014,09,16,01,26,14.70
2014,09,16,01,27,14.70
2014,09,16,01,28,14.70
2014,09,16,01,29,14.70
2014,09,16,01,30,14.70
2014,09,16,01,31,14.70
2014,09,16,01,32,14.70
2014,09,16,01,33,14.70
2014,09,16,01,34,14.60
2014,09,16,01,35,14.60
2014,09,16,01,36,14.50
2014,09,16,01,37,14.50
2014,09,16,01,38,14.40
2014,09,16,01,39,14.30
2014,09,16,01,40,14.30
2014,09,16,01,41,14.20
2014,09,16,01,42,14.20
2014,09,16,01,43,14.10
2014,09,16,01,44,14.10
2014,09,16,01,45,14.00
2014,09,16,01,46,13.90
2014,09,16,01,47,13.90
2014,09,16,01,48,13.90
2014,09,16,01,49,13.80
2014,09,16,01,50,13.80
2014,09,16,01,51,13.70
2014,09,16,01,52,13.70
2014,09,16,01,53,13.70
2014,09,16,01,54,13.70
2014,09,16,01,55,13.60
2014,09,16,01,56,13.60
2014,09,16,01,57,13.60
2014,09,16,01,58,13.50
2014,09,16,01,59,13.50
2014,09,16,02,00,13.50
2014,09,16,02,01,13.40
2014,09,16,02,02,13.40
2014,09,16,02,03,13.40
2014,09,16,02,04,13.40
2014,09,16,02,05,13.40
2014,09,16,02,06,13.40
2014,09,16,02,07,13.40
2014,09,16,02,08,13.30
2014,09,16,02,09,13.30
2014,09,16,02,10,13.30
2014,09,16,02,11,13.30
2014,09,16,02,12,13.30
2014,09,16,02,13,13.30
2014,09,16,02,14,13.30
2014,09,16,02,15,13.30
2014,09,16,02,16,13.30
2014,09,16,02,17,13.30
2014,09,16,02,18,13.30
2014,09,16,02,19,13.30
2014,09,16,02,20,13.30
2014,09,16,02,21,13.30
2014,09,16,02,22,13.40
2014,09,16,02,23,13.40
2014,09,16,02,24,13.40
2014,09,16,02,25,13.50
2014,09,16,02,26,13.50
2014,09,16,02,27,13.60
2014,09,16,02,28,13.60
2014,09,16,02,29,13.60
2014,09,16,02,30,13.70
2014,09,16,02,31,13.70
2014,09,16,02,32,13.70
2014,09,16,02,33,13.70
2014,09,16,02,34,13.70
2014,09,16,02,35,13.70
2014,09,16,02,36,13.70
2014,09,16,02,37,13.60
2014,09,16,02,38,13.60
2014,09,16,02,39,13.50
2014,09,16,02,40,13.50
2014,09,16,02,41,13.50
2014,09,16,02,42,13.50
2014,09,16,02,43,13.50
2014,09,16,02,44,13.50
2014,09,16,02,45,13.50
2014,09,16,02,46,13.40
2014,09,16,02,47,13.40
2014,09,16,02,48,13.40
2014,09,16,02,49,13.40
2014,09,16,02,50,13.40
2014,09,16,02,51,13.40
2014,09,16,02,52,13.30
2014,09,16,02,53,13.30
2014,09,16,02,54,13.30
2014,09,16,02,55,13.30
2014,09,16,02,56,13.30
2014,09,16,02,57,13.30
2014,09,16,02,58,13.20
2014,09,16,02,59,13.20
2014,09,16,03,00,13.20
2014,09,16,03,01,13.20
2014,09,16,03,02,13.10
2014,09,16,03,03,13.10
2014,09,16,03,04,13.00
2014,09,16,03,05,12.90
2014,09,16,03,06,12.90
2014,09,16,03,07,12.90
2014,09,16,03,08,12.80
2014,09,16,03,09,12.80
2014,09,16,03,10,12.80
2014,09,16,03,11,12.80
2014,09,16,03,12,12.80
2014,09,16,03,13,12.70
2014,09,16,03,14,12.70
2014,09,16,03,15,12.70
2014,09,16,03,16,12.60
2014,09,16,03,17,12.60
2014,09,16,03,18,12.60
2014,09,16,03,19,12.60
2014,09,16,03,20,12.60
2014,09,16,03,21,12.60
2014,09,16,03,22,12.60
2014,09,16,03,23,12.70
2014,09,16,03,24,12.70
2014,09,16,03,25,12.80
2014,09,16,03,26,12.80
2014,09,16,03,27,12.80
2014,09,16,03,28,12.80
2014,09,16,03,29,12.80
2014,09,16,03,30,12.80
2014,09,16,03,31,12.90
2014,09,16,03,32,12.80
2014,09,16,03,33,12.80
2014,09,16,03,34,12.80
2014,09,16,03,35,12.80
2014,09,16,03,36,12.80
2014,09,16,03,37,12.80
2014,09,16,03,38,12.80
2014,09,16,03,39,12.70
2014,09,16,03,40,12.70
2014,09,16,03,41,12.70
2014,09,16,03,42,12.70
2014,09,16,03,43,12.70
2014,09,16,03,44,12.70
2014,09,16,03,45,12.70
2014,09,16,03,46,12.70
2014,09,16,03,47,12.80
2014,09,16,03,48,12.80
2014,09,16,03,49,12.80
2014,09,16,03,50,12.80
2014,09,16,03,51,12.80
2014,09,16,03,52,12.80
2014,09,16,03,53,12.80
2014,09,16,03,54,12.90
2014,09,16,03,55,12.90
2014,09,16,03,56,12.90
2014,09,16,03,57,12.90
2014,09,16,03,58,12.90
2014,09,16,03,59,12.90
2014,09,16,04,00,12.90
2014,09,16,04,01,12.80
2014,09,16,04,02,12.80
2014,09,16,04,03,12.80
2014,09,16,04,04,12.70
2014,09,16,04,05,12.70
2014,09,16,04,06,12.60
2014,09,16,04,07,12.60
2014,09,16,04,08,12.50
2014,09,16,04,09,12.50
2014,09,16,04,10,12.40
2014,09,16,04,11,12.40
2014,09,16,04,12,12.40
2014,09,16,04,13,12.40
2014,09,16,04,14,12.40
2014,09,16,04,15,12.40
2014,09,16,04,16,12.50
2014,09,16,04,17,12.50
2014,09,16,04,18,12.60
2014,09,16,04,19,12.70
2014,09,16,04,20,12.90
2014,09,16,04,21,13.00
2014,09,16,04,22,13.20
2014,09,16,04,23,13.30
2014,09,16,04,24,13.30
2014,09,16,04,25,13.50
2014,09,16,04,26,13.60
2014,09,16,04,27,13.70
2014,09,16,04,28,13.70
2014,09,16,04,29,13.70
2014,09,16,04,30,13.70
2014,09,16,04,31,13.70
2014,09,16,04,32,13.70
2014,09,16,04,33,13.60
2014,09,16,04,34,13.60
2014,09,16,04,35,13.60
2014,09,16,04,36,13.50
2014,09,16,04,37,13.50
2014,09,16,04,38,13.40
2014,09,16,04,39,13.40
2014,09,16,04,40,13.40
2014,09,16,04,41,13.30
2014,09,16,04,42,13.30
2014,09,16,04,43,13.20
2014,09,16,04,44,13.20
2014,09,16,04,45,13.10
2014,09,16,04,46,13.00
2014,09,16,04,47,12.90
2014,09,16,04,48,12.90
2014,09,16,04,49,12.80
2014,09,16,04,50,12.80
2014,09,16,04,51,12.80
2014,09,16,04,52,12.90
2014,09,16,04,53,12.90
2014,09,16,04,54,13.00
2014,09,16,04,55,13.10
2014,09,16,04,56,13.20
2014,09,16,04,57,13.20
2014,09,16,04,58,13.30
2014,09,16,04,59,13.30
2014,09,16,05,00,13.40
2014,09,16,05,01,13.40
2014,09,16,05,02,13.40
2014,09,16,05,03,13.40
2014,09,16,05,04,13.50
2014,09,16,05,05,13.60
2014,09,16,05,06,13.60
2014,09,16,05,07,13.60
2014,09,16,05,08,13.70
2014,09,16,05,09,13.70
2014,09,16,05,10,13.70
2014,09,16,05,11,13.70
2014,09,16,05,12,13.70
2014,09,16,05,13,13.70
2014,09,16,05,14,13.60
2014,09,16,05,15,13.60
2014,09,16,05,16,13.50
2014,09,16,05,17,13.40
2014,09,16,05,18,13.30
2014,09,16,05,19,13.20
2014,09,16,05,20,13.10
2014,09,16,05,21,13.00
2014,09,16,05,22,13.00
2014,09,16,05,23,12.90
2014,09,16,05,24,12.90
2014,09,16,05,25,12.90
2014,09,16,05,26,12.90
2014,09,16,05,27,12.90
2014,09,16,05,28,12.90
2014,09,16,05,29,12.90
2014,09,16,05,30,12.90
2014,09,16,05,31,12.90
2014,09,16,05,32,12.90
2014,09,16,05,33,13.00
2014,09,16,05,34,13.00
2014,09,16,05,35,13.10
2014,09,16,05,36,13.10
2014,09,16,05,37,13.20
2014,09,16,05,38,13.10
2014,09,16,05,39,13.00
2014,09,16,05,40,12.80
2014,09,16,05,41,12.70
2014,09,16,05,42,12.70
2014,09,16,05,43,12.70
2014,09,16,05,44,12.70
2014,09,16,05,45,12.70
2014,09,16,05,46,12.70
2014,09,16,05,47,12.70
2014,09,16,05,48,12.80
2014,09,16,05,49,12.80
2014,09,16,05,50,12.90
2014,09,16,05,51,13.10
2014,09,16,05,52,13.30
2014,09,16,05,53,13.40
2014,09,16,05,54,13.60
2014,09,16,05,55,13.80
2014,09,16,05,56,13.90
2014,09,16,05,57,14.00
2014,09,16,05,58,14.00
2014,09,16,05,59,14.00
2014,09,16,06,00,13.90
2014,09,16,06,01,13.70
2014,09,16,06,02,13.40
2014,09,16,06,03,13.10
2014,09,16,06,04,12.80
2014,09,16,06,05,12.60
2014,09,16,06,06,12.40
2014,09,16,06,07,12.20
2014,09,16,06,08,12.10
2014,09,16,06,09,12.00
2014,09,16,06,10,11.90
2014,09,16,06,11,11.70
2014,09,16,06,12,11.60
2014,09,16,06,13,11.50
2014,09,16,06,14,11.40
2014,09,16,06,15,11.40
2014,09,16,06,16,11.30
2014,09,16,06,17,11.20
2014,09,16,06,18,11.20
2014,09,16,06,19,11.10
2014,09,16,06,20,11.10
2014,09,16,06,21,11.10
2014,09,16,06,22,11.00
2014,09,16,06,23,11.00
2014,09,16,06,24,11.00
2014,09,16,06,25,11.00
2014,09,16,06,26,11.00
2014,09,16,06,27,11.00
2014,09,16,06,28,11.00
2014,09,16,06,29,11.00
2014,09,16,06,30,10.90
2014,09,16,06,31,10.90
2014,09,16,06,32,10.90
2014,09,16,06,33,10.90
2014,09,16,06,34,10.80
2014,09,16,06,35,10.80
2014,09,16,06,36,10.70
2014,09,16,06,37,10.70
2014,09,16,06,38,10.70
2014,09,16,06,39,10.60
2014,09,16,06,40,10.60
2014,09,16,06,41,10.60
2014,09,16,06,42,10.60
2014,09,16,06,43,10.60
2014,09,16,06,44,10.60
2014,09,16,06,45,10.50
2014,09,16,06,46,10.50
2014,09,16,06,47,10.50
2014,09,16,06,48,10.50
2014,09,16,06,49,10.50
2014,09,16,06,50,10.50
2014,09,16,06,51,10.60
2014,09,16,06,52,10.60
2014,09,16,06,53,10.60
2014,09,16,06,54,10.60
2014,09,16,06,55,10.70
2014,09,16,06,56,10.70
2014,09,16,06,57,10.80
2014,09,16,06,58,10.80
2014,09,16,06,59,10.80
2014,09,16,07,00,10.90
2014,09,16,07,01,10.90
2014,09,16,07,02,10.90
2014,09,16,07,03,10.90
2014,09,16,07,04,11.00
2014,09,16,07,05,11.00
2014,09,16,07,06,11.00
2014,09,16,07,07,11.10
2014,09,16,07,08,11.10
2014,09,16,07,09,11.10
2014,09,16,07,10,11.20
2014,09,16,07,11,11.20
2014,09,16,07,12,11.30
2014,09,16,07,13,11.30
2014,09,16,07,14,11.40
2014,09,16,07,15,11.40
2014,09,16,07,16,11.50
2014,09,16,07,17,11.60
2014,09,16,07,18,11.60
2014,09,16,07,19,11.70
2014,09,16,07,20,11.70
2014,09,16,07,21,11.70
2014,09,16,07,22,11.80
2014,09,16,07,23,11.80
2014,09,16,07,24,11.80
2014,09,16,07,25,11.80
2014,09,16,07,26,11.90
2014,09,16,07,27,11.90
2014,09,16,07,28,11.90
2014,09,16,07,29,11.90
2014,09,16,07,30,12.00
2014,09,16,07,31,12.00
2014,09,16,07,32,12.10
2014,09,16,07,33,12.10
2014,09,16,07,34,12.10
2014,09,16,07,35,12.10
2014,09,16,07,36,12.10
2014,09,16,07,37,12.10
2014,09,16,07,38,12.10
2014,09,16,07,39,12.10
2014,09,16,07,40,12.10
2014,09,16,07,41,12.10
2014,09,16,07,42,12.20
2014,09,16,07,43,12.20
2014,09,16,07,44,12.20
2014,09,16,07,45,12.20
2014,09,16,07,46,12.20
2014,09,16,07,47,12.20
2014,09,16,07,48,12.20
2014,09,16,07,49,12.20
2014,09,16,07,50,12.20
2014,09,16,07,51,12.30
2014,09,16,07,52,12.30
2014,09,16,07,53,12.30
2014,09,16,07,54,12.40
2014,09,16,07,55,12.40
2014,09,16,07,56,12.40
2014,09,16,07,57,12.50
2014,09,16,07,58,12.50
2014,09,16,07,59,12.50
2014,09,16,08,00,12.50
2014,09,16,08,01,12.40
2014,09,16,08,02,12.40
2014,09,16,08,03,12.30
2014,09,16,08,04,12.30
2014,09,16,08,05,12.30
2014,09,16,08,06,12.30
2014,09,16,08,07,12.30
2014,09,16,08,08,12.40
2014,09,16,08,09,12.50
2014,09,16,08,10,12.50
2014,09,16,08,11,12.60
2014,09,16,08,12,12.70
2014,09,16,08,13,12.70
2014,09,16,08,14,12.80
2014,09,16,08,15,12.80
2014,09,16,08,16,12.80
2014,09,16,08,17,12.90
2014,09,16,08,18,12.90
2014,09,16,08,19,12.90
2014,09,16,08,20,12.90
2014,09,16,08,21,12.90
2014,09,16,08,22,12.90
2014,09,16,08,23,12.90
2014,09,16,08,24,12.90
2014,09,16,08,25,13.00
2014,09,16,08,26,13.00
2014,09,16,08,27,13.00
2014,09,16,08,28,13.10
2014,09,16,08,29,13.10
2014,09,16,08,30,13.20
2014,09,16,08,31,13.20
2014,09,16,08,32,13.20
2014,09,16,08,33,13.30
2014,09,16,08,34,13.30
2014,09,16,08,35,13.30
2014,09,16,08,36,13.40
2014,09,16,08,37,13.40
2014,09,16,08,38,13.50
2014,09,16,08,39,13.50
2014,09,16,08,40,13.60
2014,09,16,08,41,13.70
2014,09,16,08,42,13.80
2014,09,16,08,43,13.80
2014,09,16,08,44,13.90
2014,09,16,08,45,13.90
2014,09,16,08,46,13.90
2014,09,16,08,47,14.00
2014,09,16,08,48,14.00
2014,09,16,08,49,14.10
2014,09,16,08,50,14.10
2014,09,16,08,51,14.20
2014,09,16,08,52,14.20
2014,09,16,08,53,14.30
2014,09,16,08,54,14.40
2014,09,16,08,55,14.40
2014,09,16,08,56,14.50
2014,09,16,08,57,14.60
2014,09,16,08,58,14.70
2014,09,16,08,59,14.70
2014,09,16,09,00,14.80
2014,09,16,09,01,14.80
2014,09,16,09,02,14.80
2014,09,16,09,03,14.80
2014,09,16,09,04,14.80
2014,09,16,09,05,14.80
2014,09,16,09,06,14.80
2014,09,16,09,07,14.80
2014,09,16,09,08,14.80
2014,09,16,09,09,14.80
2014,09,16,09,10,14.80
2014,09,16,09,11,14.80
2014,09,16,09,12,14.80
2014,09,16,09,13,14.70
2014,09,16,09,14,14.70
2014,09,16,09,15,14.70
2014,09,16,09,16,14.60
2014,09,16,09,17,14.60
2014,09,16,09,18,14.60
2014,09,16,09,19,14.60
2014,09,16,09,20,14.60
2014,09,16,09,21,14.50
2014,09,16,09,22,14.50
2014,09,16,09,23,14.50
2014,09,16,09,24,14.50
2014,09,16,09,25,14.50
2014,09,16,09,26,14.40
2014,09,16,09,27,14.40
2014,09,16,09,28,14.40
2014,09,16,09,29,14.40
2014,09,16,09,30,14.40
2014,09,16,09,31,14.40
2014,09,16,09,32,14.40
2014,09,16,09,33,14.40
2014,09,16,09,34,14.30
2014,09,16,09,35,14.40
2014,09,16,09,36,14.40
2014,09,16,09,37,14.40
2014,09,16,09,38,14.40
2014,09,16,09,39,14.40
2014,09,16,09,40,14.40
2014,09,16,09,41,14.40
2014,09,16,09,42,14.40
2014,09,16,09,43,14.40
2014,09,16,09,44,14.30
2014,09,16,09,45,14.30
2014,09,16,09,46,14.30
2014,09,16,09,47,14.40
2014,09,16,09,48,14.40
2014,09,16,09,49,14.40
2014,09,16,09,50,14.50
2014,09,16,09,51,14.50
2014,09,16,09,52,14.60
2014,09,16,09,53,14.60
2014,09,16,09,54,14.70
2014,09,16,09,55,14.70
2014,09,16,09,56,14.70
2014,09,16,09,57,14.80
2014,09,16,09,58,14.90
2014,09,16,09,59,14.90
2014,09,16,10,00,15.00
2014,09,16,10,01,15.00
2014,09,16,10,02,15.00
2014,09,16,10,03,15.00
2014,09,16,10,04,15.00
2014,09,16,10,05,15.10
2014,09,16,10,06,15.20
2014,09,16,10,07,15.20
2014,09,16,10,08,15.30
2014,09,16,10,09,15.30
2014,09,16,10,10,15.40
2014,09,16,10,11,15.40
2014,09,16,10,12,15.50
2014,09,16,10,13,15.60
2014,09,16,10,14,15.60
2014,09,16,10,15,15.70
2014,09,16,10,16,15.80
2014,09,16,10,17,15.80
2014,09,16,10,18,15.80
2014,09,16,10,19,15.90
2014,09,16,10,20,16.00
2014,09,16,10,21,16.10
2014,09,16,10,22,16.20
2014,09,16,10,23,16.30
2014,09,16,10,24,16.40
2014,09,16,10,25,16.50
2014,09,16,10,26,16.70
2014,09,16,10,27,16.80
2014,09,16,10,28,16.80
2014,09,16,10,29,16.90
2014,09,16,10,30,16.90
2014,09,16,10,31,16.90
2014,09,16,10,32,16.90
2014,09,16,10,33,16.90
2014,09,16,10,34,16.90
2014,09,16,10,35,16.90
2014,09,16,10,36,17.00
2014,09,16,10,37,17.00
2014,09,16,10,38,17.10
2014,09,16,10,39,17.10
2014,09,16,10,40,17.10
2014,09,16,10,41,17.20
2014,09,16,10,42,17.20
2014,09,16,10,43,17.20
2014,09,16,10,44,17.30
2014,09,16,10,45,17.40
2014,09,16,10,46,17.40
2014,09,16,10,47,17.50
2014,09,16,10,48,17.50
2014,09,16,10,49,17.60
2014,09,16,10,50,17.60
2014,09,16,10,51,17.70
2014,09,16,10,52,17.70
2014,09,16,10,53,17.80
2014,09,16,10,54,17.90
2014,09,16,10,55,17.90
2014,09,16,10,56,18.00
2014,09,16,10,57,18.00
2014,09,16,10,58,18.10
2014,09,16,10,59,18.10
2014,09,16,11,00,18.20
2014,09,16,11,01,18.30
2014,09,16,11,02,18.40
2014,09,16,11,03,18.40
2014,09,16,11,04,18.40
2014,09,16,11,05,18.40
2014,09,16,11,06,18.40
2014,09,16,11,07,18.40
2014,09,16,11,08,18.50
2014,09,16,11,09,18.60
2014,09,16,11,10,18.60
2014,09,16,11,11,18.70
2014,09,16,11,12,18.80
2014,09,16,11,13,18.80
2014,09,16,11,14,18.80
2014,09,16,11,15,18.90
2014,09,16,11,16,18.90
2014,09,16,11,17,18.90
2014,09,16,11,18,18.80
2014,09,16,11,19,18.80
2014,09,16,11,20,18.70
2014,09,16,11,21,18.70
2014,09,16,11,22,18.70
2014,09,16,11,23,18.70
2014,09,16,11,24,18.80
2014,09,16,11,25,18.80
2014,09,16,11,26,18.80
2014,09,16,11,27,18.80
2014,09,16,11,28,18.80
2014,09,16,11,29,18.80
2014,09,16,11,30,18.80
2014,09,16,11,31,18.80
2014,09,16,11,32,18.80
2014,09,16,11,33,18.80
2014,09,16,11,34,18.80
2014,09,16,11,35,18.90
2014,09,16,11,36,19.00
2014,09,16,11,37,19.00
2014,09,16,11,38,19.10
2014,09,16,11,39,19.10
2014,09,16,11,40,19.10
2014,09,16,11,41,19.20
2014,09,16,11,42,19.20
2014,09,16,11,43,19.30
2014,09,16,11,44,19.30
2014,09,16,11,45,19.30
2014,09,16,11,46,19.40
2014,09,16,11,47,19.50
2014,09,16,11,48,19.60
2014,09,16,11,49,19.70
2014,09,16,11,50,19.70
2014,09,16,11,51,19.70
2014,09,16,11,52,19.70
2014,09,16,11,53,19.80
2014,09,16,11,54,19.80
2014,09,16,11,55,20.00
2014,09,16,11,56,20.10
2014,09,16,11,57,20.10
2014,09,16,11,58,20.20
2014,09,16,11,59,20.30
2014,09,16,12,00,20.20
2014,09,16,12,01,20.20
2014,09,16,12,02,20.10
2014,09,16,12,03,20.00
2014,09,16,12,04,20.00
2014,09,16,12,05,19.90
2014,09,16,12,06,19.90
2014,09,16,12,07,19.90
2014,09,16,12,08,19.90
2014,09,16,12,09,19.90
2014,09,16,12,10,19.90
2014,09,16,12,11,19.90
2014,09,16,12,12,19.90
2014,09,16,12,13,19.90
2014,09,16,12,14,19.90
2014,09,16,12,15,19.90
2014,09,16,12,16,19.90
2014,09,16,12,17,19.90
2014,09,16,12,18,19.90
2014,09,16,12,19,19.90
2014,09,16,12,20,19.90
2014,09,16,12,21,19.90
2014,09,16,12,22,19.90
2014,09,16,12,23,19.90
2014,09,16,12,24,19.90
2014,09,16,12,25,19.90
2014,09,16,12,26,19.90
2014,09,16,12,27,19.90
2014,09,16,12,28,20.00
2014,09,16,12,29,20.00
2014,09,16,12,30,20.00
2014,09,16,12,31,19.90
2014,09,16,12,32,19.90
2014,09,16,12,33,19.90
2014,09,16,12,34,19.90
2014,09,16,12,35,19.90
2014,09,16,12,36,19.90
2014,09,16,12,37,19.90
2014,09,16,12,38,19.90
2014,09,16,12,39,19.80
2014,09,16,12,40,19.80
2014,09,16,12,41,19.80
2014,09,16,12,42,19.80
2014,09,16,12,43,19.80
2014,09,16,12,44,19.80
2014,09,16,12,45,19.80
2014,09,16,12,46,19.80
2014,09,16,12,47,19.90
2014,09,16,12,48,19.90
2014,09,16,12,49,19.90
2014,09,16,12,50,19.90
2014,09,16,12,51,19.90
2014,09,16,12,52,19.90
2014,09,16,12,53,19.90
2014,09,16,12,54,19.90
2014,09,16,12,55,20.00
2014,09,16,12,56,20.00
2014,09,16,12,57,20.00
2014,09,16,12,58,20.10
2014,09,16,12,59,20.10
2014,09,16,13,00,20.10
2014,09,16,13,01,20.10
2014,09,16,13,02,20.20
2014,09,16,13,03,20.20
2014,09,16,13,04,20.30
2014,09,16,13,05,20.40
2014,09,16,13,06,20.40
2014,09,16,13,07,20.50
2014,09,16,13,08,20.60
2014,09,16,13,09,20.60
2014,09,16,13,10,20.70
2014,09,16,13,11,20.70
2014,09,16,13,12,20.70
2014,09,16,13,13,20.70
2014,09,16,13,14,20.70
2014,09,16,13,15,20.70
2014,09,16,13,16,20.70
2014,09,16,13,17,20.70
2014,09,16,13,18,20.70
2014,09,16,13,19,20.80
2014,09,16,13,20,20.70
2014,09,16,13,21,20.70
2014,09,16,13,22,20.80
2014,09,16,13,23,20.80
2014,09,16,13,24,20.90
2014,09,16,13,25,21.00
2014,09,16,13,26,21.00
2014,09,16,13,27,21.10
2014,09,16,13,28,21.00
2014,09,16,13,29,21.00
2014,09,16,13,30,21.00
2014,09,16,13,31,21.00
2014,09,16,13,32,21.00
2014,09,16,13,33,20.90
2014,09,16,13,34,20.90
2014,09,16,13,35,20.90
2014,09,16,13,36,20.90
2014,09,16,13,37,20.90
2014,09,16,13,38,21.00
2014,09,16,13,39,21.00
2014,09,16,13,40,21.10
2014,09,16,13,41,21.10
2014,09,16,13,42,21.00
2014,09,16,13,43,20.90
2014,09,16,13,44,20.80
2014,09,16,13,45,20.70
2014,09,16,13,46,20.70
2014,09,16,13,47,20.60
2014,09,16,13,48,20.50
2014,09,16,13,49,20.40
2014,09,16,13,50,20.30
2014,09,16,13,51,20.30
2014,09,16,13,52,20.30
2014,09,16,13,53,20.20
2014,09,16,13,54,20.20
2014,09,16,13,55,20.10
2014,09,16,13,56,20.10
2014,09,16,13,57,20.10
2014,09,16,13,58,20.20
2014,09,16,13,59,20.30
2014,09,16,14,00,20.30
2014,09,16,14,01,20.30
2014,09,16,14,02,20.30
2014,09,16,14,03,20.30
2014,09,16,14,04,20.40
2014,09,16,14,05,20.50
2014,09,16,14,06,20.50
2014,09,16,14,07,20.50
2014,09,16,14,08,20.60
2014,09,16,14,09,20.60
2014,09,16,14,10,20.60
2014,09,16,14,11,20.60
2014,09,16,14,12,20.60
2014,09,16,14,13,20.60
2014,09,16,14,14,20.60
2014,09,16,14,15,20.60
2014,09,16,14,16,20.60
2014,09,16,14,17,20.60
2014,09,16,14,18,20.70
2014,09,16,14,19,20.80
2014,09,16,14,20,20.80
2014,09,16,14,21,20.80
2014,09,16,14,22,20.80
2014,09,16,14,23,20.90
2014,09,16,14,24,20.90
2014,09,16,14,25,20.90
2014,09,16,14,26,20.90
2014,09,16,14,27,20.90
2014,09,16,14,28,20.90
2014,09,16,14,29,20.90
2014,09,16,14,30,20.90
2014,09,16,14,31,20.90
2014,09,16,14,32,20.90
2014,09,16,14,33,20.90
2014,09,16,14,34,20.90
2014,09,16,14,35,20.90
2014,09,16,14,36,21.00
2014,09,16,14,37,21.00
2014,09,16,14,38,21.10
2014,09,16,14,39,21.10
2014,09,16,14,40,21.20
2014,09,16,14,41,21.30
2014,09,16,14,42,21.30
2014,09,16,14,43,21.40
2014,09,16,14,44,21.40
2014,09,16,14,45,21.50
2014,09,16,14,46,21.50
2014,09,16,14,47,21.50
2014,09,16,14,48,21.60
2014,09,16,14,49,21.70
2014,09,16,14,50,21.80
2014,09,16,14,51,21.80
2014,09,16,14,52,21.80
2014,09,16,14,53,21.80
2014,09,16,14,54,21.80
2014,09,16,14,55,21.80
2014,09,16,14,56,21.80
2014,09,16,14,57,21.80
2014,09,16,14,58,21.80
2014,09,16,14,59,21.80
2014,09,16,15,00,21.80
2014,09,16,15,01,21.80
2014,09,16,15,02,21.80
2014,09,16,15,03,21.80
2014,09,16,15,04,21.70
2014,09,16,15,05,21.60
2014,09,16,15,06,21.60
2014,09,16,15,07,21.60
2014,09,16,15,08,21.60
2014,09,16,15,09,21.60
2014,09,16,15,10,21.70
2014,09,16,15,11,21.70
2014,09,16,15,12,21.70
2014,09,16,15,13,21.80
2014,09,16,15,14,21.80
2014,09,16,15,15,21.80
2014,09,16,15,16,21.80
2014,09,16,15,17,21.80
2014,09,16,15,18,21.70
2014,09,16,15,19,21.60
2014,09,16,15,20,21.60
2014,09,16,15,21,21.60
2014,09,16,15,22,21.60
2014,09,16,15,23,21.60
2014,09,16,15,24,21.70
2014,09,16,15,25,21.70
2014,09,16,15,26,21.70
2014,09,16,15,27,21.70
2014,09,16,15,28,21.70
2014,09,16,15,29,21.60
2014,09,16,15,30,21.70
2014,09,16,15,31,21.70
2014,09,16,15,32,21.70
2014,09,16,15,33,21.70
2014,09,16,15,34,21.70
2014,09,16,15,35,21.80
2014,09,16,15,36,21.80
2014,09,16,15,37,21.80
2014,09,16,15,38,21.80
2014,09,16,15,39,21.90
2014,09,16,15,40,21.90
2014,09,16,15,41,21.90
2014,09,16,15,42,21.90
2014,09,16,15,43,21.90
2014,09,16,15,44,21.90
2014,09,16,15,45,21.90
2014,09,16,15,46,22.00
2014,09,16,15,47,22.00
2014,09,16,15,48,22.10
2014,09,16,15,49,22.10
2014,09,16,15,50,22.20
2014,09,16,15,51,22.20
2014,09,16,15,52,22.20
2014,09,16,15,53,22.20
2014,09,16,15,54,22.20
2014,09,16,15,55,22.20
2014,09,16,15,56,22.30
2014,09,16,15,57,22.30
2014,09,16,15,58,22.40
2014,09,16,15,59,22.40
2014,09,16,16,00,22.40
2014,09,16,16,01,22.40
2014,09,16,16,02,22.40
2014,09,16,16,03,22.50
2014,09,16,16,04,22.50
2014,09,16,16,05,22.50
2014,09,16,16,06,22.50
2014,09,16,16,07,22.50
2014,09,16,16,08,22.60
2014,09,16,16,09,22.60
2014,09,16,16,10,22.60
2014,09,16,16,11,22.70
2014,09,16,16,12,22.70
2014,09,16,16,13,22.80
2014,09,16,16,14,22.80
2014,09,16,16,15,22.80
2014,09,16,16,16,22.90
2014,09,16,16,17,22.90
2014,09,16,16,18,22.90
2014,09,16,16,19,23.00
2014,09,16,16,20,23.10
2014,09,16,16,21,23.10
2014,09,16,16,22,23.20
2014,09,16,16,23,23.20
2014,09,16,16,24,23.30
2014,09,16,16,25,23.30
2014,09,16,16,26,23.40
2014,09,16,16,27,23.30
2014,09,16,16,28,23.30
2014,09,16,16,29,23.30
2014,09,16,16,30,23.30
2014,09,16,16,31,23.20
2014,09,16,16,32,23.20
2014,09,16,16,33,23.20
2014,09,16,16,34,23.30
2014,09,16,16,35,23.30
2014,09,16,16,36,23.30
2014,09,16,16,37,23.30
2014,09,16,16,38,23.30
2014,09,16,16,39,23.30
2014,09,16,16,40,23.30
2014,09,16,16,41,23.30
2014,09,16,16,42,23.30
2014,09,16,16,43,23.30
2014,09,16,16,44,23.30
2014,09,16,16,45,23.30
2014,09,16,16,46,23.30
2014,09,16,16,47,23.20
2014,09,16,16,48,23.20
2014,09,16,16,49,23.20
2014,09,16,16,50,23.20
2014,09,16,16,51,23.10
2014,09,16,16,52,23.10
2014,09,16,16,53,23.00
2014,09,16,16,54,22.90
2014,09,16,16,55,22.80
2014,09,16,16,56,22.80
2014,09,16,16,57,22.80
2014,09,16,16,58,22.70
2014,09,16,16,59,22.70
2014,09,16,17,00,22.60
2014,09,16,17,01,22.60
2014,09,16,17,02,22.60
2014,09,16,17,03,22.60
2014,09,16,17,04,22.60
2014,09,16,17,05,22.60
2014,09,16,17,06,22.60
2014,09,16,17,07,22.60
2014,09,16,17,08,22.60
2014,09,16,17,09,22.60
2014,09,16,17,10,22.60
2014,09,16,17,11,22.60
2014,09,16,17,12,22.60
2014,09,16,17,13,22.60
2014,09,16,17,14,22.60
2014,09,16,17,15,22.60
2014,09,16,17,16,22.60
2014,09,16,17,17,22.70
2014,09,16,17,18,22.70
2014,09,16,17,19,22.70